Тахта-Базар

Turkmenistan     35˚57′00″N   62˚49′58″E
temp.,
°C
wind,
m/s
gust,
m/s
humid.,
%
clouds,
%
prec.,
mm/h
press.,
hPa
HPBL,
m
3 december, thu
thu323:00+8˚nne234534 0.0 102728
02:00+6˚n124965 0.0 102622
05:00+5˚ne115162 0.0 102622
08:00+6˚nne114891 0.0 102722
11:00+9˚n223896 0.0 1028320
14:00+9˚nnw2246100 0.0 1026487
17:00+9˚sw1251100 0.0 1027285
20:00+8˚n125692 0.0 1028121
4 december, fri
fri423:00+8˚n236096 0.0 1028173
02:00+7˚n4666100 0.0 1028339
05:00+6˚nnw4580100 1.1 1029420
08:00+5˚n4581100 0.6 1031376
11:00+5˚n4580100 1.1 1032452
14:00+6˚n4567100 0.1 1030536
17:00+7˚nne3462100 0.1 1030587
20:00+7˚ne2459100 0.0 1030312
5 december, sat
sat523:00+6˚n125798 0.0 103060
02:00+4˚nnw225123 0.0 102822
05:00+3˚n126315 0.0 102822
08:00+3˚nne127440 0.0 102826
11:00+7˚nne125341 0.0 1027440
14:00+10˚nnw234618 0.0 1025989
17:00+10˚wnw344612 0.0 1024246
20:00+8˚ene234946 0.0 1026113
6 december, sun
sun623:00+5˚ese234767 0.0 102639
02:00+4˚e125251 0.0 102622
05:00+3˚ene125458 0.0 102522
08:00+2˚ene1155100 0.0 102522
11:00+6˚ene1240100 0.0 1024381
14:00+9˚nw123899 0.0 1021588
17:00+9˚wnw4541100 0.0 1021323
20:00+7˚w3469100 0.7 1023218
7 december, mon
mon723:00+5˚ne4584100 5.1 1024364
02:00+5˚nne3484100 1.9 1025389
05:00+5˚nnw2283100 2.3 1026353
08:00+3˚nw4588100 0.5 1028314
11:00+2˚nw5588100 0.7 1030319
14:00+3˚nnw5687100 0.1 1029351
17:00+3˚nnw5789100 1.2 1029341
20:00+4˚n4588100 0.9 1029324